Flag for Norway Weather past 2 weeks in Hammerfest, Norway

Now
48 °F

Scattered clouds.


Feels Like: 41 °F
Forecast: 42 / 46 °F
Wind: 21 mph from Northeast

Location: Hammerfest

Current Time: Jul 6, 2015 at 4:36:22 PM

Latest Report: Jul 6, 2015 at 3:50 PM


Visibility: N/A

Pressure: 29.95 "Hg

Humidity: 66%

Dew point: 37 °F

Location of HammerfestLocation

Historic Weather in Hammerfest — Graph

°F

Hammerfest temperature yesterday

Maximum temperature yesterday: 46 °F (at 2:50 PM)
Minimum temperature yesterday: 39 °F (at 12:50 AM)
Average temperature yesterday: 42 °F

Past Weeks' High & Low Weather Summary

 TemperatureHumidityPressure
High61 °F (Jun 24, 10:50 AM)100% (Jun 23, 12:50 AM)30.24 "Hg (Jun 23, 12:50 AM)
Low37 °F (Jul 6, 12:50 AM)48% (Jul 2, 1:50 PM)29.68 "Hg (Jun 25, 6:50 AM)
Average46 °F80%29.96 "Hg
* Reported Jun 21 2:50 PM — Jul 6 2:50 PM, Hammerfest, Weather by CustomWeather, © 2015

Note: Actual official high and low records may vary slightly from our data, if they occured in-between our weather recording intervals... More about our weather records

Advertising

Hammerfest weather history for previous 24 hours

 ConditionsComfort  
Time TempWeatherWind HumidityBarometerVisibility
2:50 PM
Mon, Jul 6
48 °FPartly sunny.20 mph62%29.98 "HgN/A
1:50 PM52 °FScattered clouds.17 mph54%29.98 "HgN/A
12:50 PM50 °FScattered clouds.17 mph54%30.01 "HgN/A
11:50 AM48 °FScattered clouds.16 mph62%30.01 "HgN/A
10:50 AM48 °FScattered clouds.10 mph66%30.04 "HgN/A
9:50 AM48 °FPartly sunny.14 mph62%30.07 "HgN/A
8:50 AM48 °FScattered clouds.6 mph62%30.07 "HgN/A
7:50 AM46 °FPassing clouds.7 mph71%30.07 "HgN/A
6:50 AM45 °FPassing clouds.7 mph66%30.09 "HgN/A
5:50 AM45 °FPassing clouds.7 mph71%30.09 "HgN/A
4:50 AM43 °FPassing clouds.6 mph81%30.12 "HgN/A
3:50 AM41 °FPassing clouds.6 mph87%30.12 "HgN/A
2:50 AM41 °FPassing clouds.6 mph81%30.15 "HgN/A
1:50 AM41 °FPassing clouds.5 mph81%30.15 "HgN/A
12:50 AM37 °FPassing clouds.3 mph93%30.15 "HgN/A
11:50 PM
Sun, Jul 5
39 °FPassing clouds.5 mph87%30.15 "HgN/A
10:50 PM41 °FPassing clouds.5 mph81%30.15 "HgN/A
9:50 PM41 °FPassing clouds.5 mph76%30.15 "HgN/A
8:50 PM43 °FPassing clouds.7 mph71%30.18 "HgN/A
7:50 PM45 °FPassing clouds.8 mph66%30.18 "HgN/A
6:50 PM45 °FScattered clouds.8 mph66%30.18 "HgN/A
5:50 PM45 °FScattered clouds.8 mph71%30.21 "HgN/A
4:50 PM45 °FPartly sunny.8 mph71%30.21 "HgN/A
Weather by CustomWeather, © 2015

See weather overviewHow to use our weather pages